Location: Gallinara
(44.0333°N, 8.2333°E)
Time: 16:52:47
(UTC+00:00)

BREEZE-M DEB (TANK) - Pass Details

Date: 25 September 2020
Orbit: 310 x 13941 km, 49.6° (Epoch: 30 October)

Event Time Altitude Azimuth Distance (km) Brightness Sun altitude
Exits shadow 04:06:11 19° 291° (WNW) 1,316 4.3 -13.7°
Maximum altitude 04:08:31 48° 1° (N) 973 4.1 -13.2°
Drops below altitude 10° 04:17:18 10° 75° (ENE) 4,527 9.0 -11.7°
Sets 04:24:20 0° 80° (E) 7,364 10.9 -10.4°
